Starlink 6380

operational
NORAD ID: 57344 Int'l Des: 2023-099 Owner: SPXS Country: US Constellation: starlink
LEOCIRCULAR

Starlink 6380について

説明を読み込み中...

リアルタイム位置

3D地球を読み込み中...

次回通過

高度履歴

Altitude vs Time

uPlot chart will show altitude changes over time

軌道要素

1 57344U 23099S 25304.82198889 -.00000538 00000-0 -24732-4 0 9993
2 57344 43.0023 229.0198 0000983 275.3757 84.6974 15.02530976126739
Epoch: Oct 31, 2025 • Age: 23 hours

現在のステータス

高度 562.1 km
速度 7.59 km/s
衛星直下点 39.88°N, 29.97°W
打ち上げ日 Jul 16, 2023
運用期間 2.2 years
タイプ internet

技術仕様

分類 Payload
質量 305.00 kg
乾燥質量 290.00 kg
総質量 305.00 kg
長さ 0.20 m
直径 2.80 m
スパン 9.00 m
形状 Box + pan
製造者 SPXS
バスタイプ Starlink
フェーズステータス In Orbit
所有者/国 SPXS/US

大規模コンステレーション

Loading constellations...